Weather History for Cleveland Burke, OH

Change the Weather History Date:

Friday, November 9, 2012

  Actual Average Record
Temperature  
Mean Temperature 42 °F -  
Max Temperature 51 °F 50 °F 72 °F (1999)
Min Temperature 34 °F 39 °F 32 °F (1996)
Degree Days  
Heating Degree Days 22    
Moisture  
Dew Point 35 °F    
Average Humidity 71    
Maximum Humidity 85    
Minimum Humidity 59    
Precipitation  
Precipitation 0.00 in - - ()
Sea Level Pressure  
Sea Level Pressure 30.18 in    
Wind  
Wind Speed 6 mph (South)    
Max Wind Speed 10 mph    
Max Gust Speed -    
Visibility 6 miles    
Events      
Averages and records for this station are not official NWS values.
T = Trace of Precipitation, MM = Missing Value Source: NWS Daily Summary

Daily Weather History Graph

Daily Weather History Graph

Search for Another Location

Airport:

Trip Planner

Search our weather history database for the weather conditions in past years. The results will help you decide how hot, cold, wet, or windy it might be!

Date:

Astronomy

Nov. 09, 2012 Rise Set
Actual Time 7:08 AM EST 5:11 PM EST
Civil Twilight 6:39 AM EST 5:41 PM EST
Nautical Twilight 6:06 AM EST 6:14 PM EST
Astronomical Twilight 5:33 AM EST 6:47 PM EST
Moon 2:02 AM EST (11/9) 2:27 PM EST (11/9)
Length of Visible Light 11h 01m
Length of Day
10h 03m
Waning Crescent, 23% of the Moon is Illuminated
Nov 9
Waning Crescent
Nov 13
New
Nov 20
First Quarter
Nov 28
Full
Dec 6
Last Quarter

Hourly Weather History & Observations

Time (EST) Temp. Windchill Dew Point Humidity Pressure Visibility Wind Dir Wind Speed Gust Speed Precip Events Conditions
12:53 AM 35.1 °F 29.3 °F 30.0 °F 82% 30.18 in 6.0 mi SSE 6.9 mph - N/A   Haze
1:53 AM 34.0 °F 28.8 °F 30.0 °F 85% 30.18 in 5.0 mi SSE 5.8 mph - N/A   Clear
2:53 AM 34.0 °F 29.8 °F 30.0 °F 85% 30.19 in 5.0 mi South 4.6 mph - N/A   Clear
3:53 AM 34.0 °F 26.6 °F 28.9 °F 82% 30.18 in 6.0 mi South 9.2 mph - N/A   Haze
4:53 AM 34.0 °F 28.8 °F 30.0 °F 85% 30.20 in 5.0 mi South 5.8 mph - N/A   Clear
5:53 AM 37.0 °F 31.6 °F 30.9 °F 79% 30.21 in 5.0 mi South 6.9 mph - N/A   Haze
7:53 AM 39.0 °F 34.8 °F 33.1 °F 79% 30.24 in 3.0 mi South 5.8 mph - N/A   Haze
8:53 AM 39.9 °F 35.1 °F 34.0 °F 79% 30.24 in 3.0 mi South 6.9 mph - N/A   Haze
9:06 AM 41.0 °F 37.1 °F 33.8 °F 76% 30.22 in 3.0 mi SSW 5.8 mph - N/A   Haze
9:53 AM 43.0 °F 38.2 °F 35.1 °F 74% 30.24 in 4.0 mi SW 8.1 mph - N/A   Haze
10:53 AM 45.0 °F 41.2 °F 35.1 °F 68% 30.25 in 4.0 mi SW 6.9 mph - N/A   Haze
11:53 AM 46.0 °F 41.0 °F 35.1 °F 66% 30.22 in 5.0 mi SW 10.4 mph - N/A   Haze
12:53 PM 48.0 °F - 36.0 °F 63% 30.19 in 7.0 mi SW 9.2 mph - N/A   Mostly Cloudy
1:53 PM 48.9 °F - 37.0 °F 64% 30.19 in 7.0 mi SW 10.4 mph - N/A   Mostly Cloudy
2:53 PM 51.1 °F - 39.9 °F 66% 30.17 in 6.0 mi NNW 3.5 mph - N/A   Haze
3:53 PM 51.1 °F - 39.0 °F 63% 30.16 in 6.0 mi Calm Calm - N/A   Haze
4:53 PM 48.9 °F - 37.0 °F 64% 30.15 in 6.0 mi South 4.6 mph - N/A   Haze
5:53 PM 50.0 °F - 37.0 °F 61% 30.14 in 7.0 mi SSE 5.8 mph - N/A   Clear
6:53 PM 48.9 °F - 37.0 °F 64% 30.15 in 7.0 mi South 4.6 mph - N/A   Clear
7:53 PM 48.9 °F - 37.0 °F 64% 30.15 in 7.0 mi SSE 5.8 mph - N/A   Mostly Cloudy
8:53 PM 50.0 °F - 37.0 °F 61% 30.13 in 8.0 mi SSE 8.1 mph - N/A   Overcast
9:53 PM 50.0 °F - 37.0 °F 61% 30.13 in 9.0 mi SSE 4.6 mph - N/A   Overcast
10:53 PM 51.1 °F - 37.0 °F 59% 30.13 in 9.0 mi Calm Calm - N/A   Overcast
11:53 PM 48.9 °F - 41.0 °F 74% 30.18 in 7.0 mi North 5.8 mph - N/A   Overcast